Mexico City Airport, Mexico

9:03 AM CDT on May 25, 2017 (GMT -0500)
Lic Benito Juarez International

Weather History for MMMX - March, 2011

Change the Weather History Date:

Friday, March 11, 2011

  Actual Average Record
Temperature  
Mean Temperature 55 °F -  
Max Temperature 73 °F 77 °F 84 °F (2006)
Min Temperature 37 °F 47 °F 35 °F (1998)
Degree Days  
Heating Degree Days 10    
Growing Degree Days 5 (Base 50)    
Moisture  
Dew Point 28 °F    
Average Humidity 44    
Maximum Humidity 87    
Minimum Humidity 9    
Precipitation  
Precipitation 0.00 in - - ()
Sea Level Pressure  
Sea Level Pressure 30.33 in    
Wind  
Wind Speed 4 mph ()    
Max Wind Speed 21 mph    
Max Gust Speed -    
Visibility 8.6 miles    
Events      
Averages and records for this station are not official NWS values.
T = Trace of Precipitation, MM = Missing Value Source: Averaged Metar Reports

Daily Weather History Graph

Daily Weather History Graph

Search for Another Location

Airport or City:

Trip Planner

Search our weather history database for the weather conditions in past years. The results will help you decide how hot, cold, wet, or windy it might be!

Date:

Astronomy

Mar. 11, 2011 Rise Set
Actual Time 6:48 AM CST 6:44 PM CST
Civil Twilight 6:26 AM CST 7:06 PM CST
Nautical Twilight 6:00 AM CST 7:32 PM CST
Astronomical Twilight 5:35 AM CST 7:57 PM CST
Moon 11:00 AM CST (3/11) No Moon Set
Length of Visible Light 12h 40m
Length of Day
11h 56m
Waxing Crescent, 38% of the Moon is Illuminated
Mar 11
Waxing Crescent
Mar 12
First Quarter
Mar 19
Full
Mar 26
Last Quarter
Apr 3
New

Hourly Weather History & Observations

Time (CST) Temp. Windchill Dew Point Humidity Pressure Visibility Wind Dir Wind Speed Gust Speed Precip Events Conditions
12:45 AM 46.4 °F - 33.8 °F 62% 30.48 in 10.0 mi Calm Calm - N/A   Clear
1:45 AM 42.8 °F - 35.6 °F 76% 30.47 in 10.0 mi Calm Calm - N/A   Clear
2:45 AM 42.8 °F - 35.6 °F 76% 30.19 in 10.0 mi Calm Calm - N/A   Clear
3:44 AM 39.2 °F 35.0 °F 33.8 °F 81% 30.44 in 10.0 mi NE 5.8 mph - N/A   Clear
5:01 AM 39.2 °F 35.0 °F 33.8 °F 81% 30.43 in 10.0 mi ENE 5.8 mph - N/A   Clear
5:44 AM 37.4 °F 32.8 °F 33.8 °F 87% 30.15 in 10.0 mi ENE 5.8 mph - N/A   Clear
6:21 AM 37.4 °F 33.8 °F 33.8 °F 87% 30.44 in 10.0 mi ENE 4.6 mph - N/A   Clear
6:45 AM 37.4 °F 33.8 °F 33.8 °F 87% 30.44 in 7.0 mi ENE 4.6 mph - N/A   Clear
7:22 AM 39.2 °F 35.9 °F 33.8 °F 81% 30.45 in 7.0 mi NE 4.6 mph - N/A   Clear
7:45 AM 41.0 °F 38.0 °F 33.8 °F 76% 30.45 in 7.0 mi ENE 4.6 mph - N/A   Clear
8:10 AM 44.6 °F 42.2 °F 35.6 °F 71% 30.45 in 7.0 mi ENE 4.6 mph - N/A   Clear
8:22 AM 44.6 °F 42.2 °F 35.6 °F 71% 30.46 in 7.0 mi ENE 4.6 mph - N/A   Clear
8:44 AM 48.2 °F - 35.6 °F 62% 30.46 in 6.0 mi ENE 3.5 mph - N/A   Clear
8:46 AM 48.2 °F - 35.6 °F 62% 30.20 in 6.0 mi ENE 3.5 mph - N/A   Clear
9:20 AM 51.8 °F - 35.6 °F 54% 30.46 in 6.0 mi ENE 4.6 mph - N/A   Clear
9:22 AM 51.8 °F - 35.6 °F 54% 30.46 in 6.0 mi Calm Calm - N/A   Clear
9:44 AM 53.6 °F - 35.6 °F 51% 30.46 in 6.0 mi ENE 4.6 mph - N/A   Clear
10:12 AM 57.2 °F - 35.6 °F 44% 30.46 in 6.0 mi Calm Calm - N/A   Clear
10:48 AM 60.8 °F - 33.8 °F 36% 30.45 in 6.0 mi North 4.6 mph - N/A   Clear
10:50 AM 60.8 °F - 33.8 °F 36% 30.45 in 6.0 mi NNE 3.5 mph - N/A   Clear
11:29 AM 64.4 °F - 30.2 °F 28% 30.43 in 6.0 mi NE 4.6 mph - N/A   Clear
11:48 AM 64.4 °F - 28.4 °F 26% 30.09 in 6.0 mi ENE 3.5 mph - N/A   Clear
12:05 PM 68.0 °F - 24.8 °F 20% 30.41 in 6.0 mi NNE 3.5 mph - N/A   Clear
12:48 PM 68.0 °F - 23.0 °F 18% 30.38 in 7.0 mi NE 6.9 mph - N/A   Clear
1:34 PM 71.6 °F - 17.6 °F 13% 30.35 in 7.0 mi WNW 20.7 mph - N/A   Clear
1:47 PM 71.6 °F - 17.6 °F 13% 30.34 in 7.0 mi WNW 8.1 mph - N/A   Clear
2:47 PM 73.4 °F - 14.0 °F 10% 29.94 in 10.0 mi North 8.1 mph - N/A   Clear
3:49 PM 73.4 °F - 14.0 °F 10% 30.28 in 11.0 mi North 9.2 mph - N/A   Partly Cloudy
4:45 PM 73.4 °F - 15.8 °F 11% 30.27 in 11.0 mi NNW 11.5 mph - N/A   Partly Cloudy
5:51 PM 71.6 °F - 10.4 °F 9% 29.95 in 11.0 mi North 5.8 mph - N/A   Partly Cloudy
6:42 PM 68.0 °F - 14.0 °F 12% 30.29 in 10.0 mi NNW 6.9 mph - N/A   Partly Cloudy
6:50 PM 66.2 °F - 30.2 °F 26% 30.30 in 10.0 mi NNW 8.1 mph - N/A   Partly Cloudy
6:52 PM 66.2 °F - 14.0 °F 13% 30.30 in 10.0 mi NNW 8.1 mph - N/A   Partly Cloudy
7:47 PM 64.4 °F - 21.2 °F 19% 30.33 in 12.0 mi NNE 17.3 mph - N/A   Clear
8:47 PM 59.0 °F - 28.4 °F 31% 30.02 in 12.0 mi NE 10.4 mph - N/A   Clear
9:48 PM 59.0 °F - 26.6 °F 29% 30.39 in 12.0 mi NNW 6.9 mph - N/A   Clear
10:45 PM 59.0 °F - 26.6 °F 29% 30.41 in 12.0 mi NNW 5.8 mph - N/A   Clear
11:48 PM 57.2 °F - 24.8 °F 29% 29.98 in 12.0 mi WNW 5.8 mph - N/A   Clear